Location: Doschendorf
(50.0069°N, 11.0602°E)
Time: 04:55:41
(UTC+00:00)

Cosmos 2297 Rocket - Pass Details

Date: 17 November 2019
Orbit: 839 x 843 km, 71.0° (Epoch: 12 December)

Event Time Altitude Azimuth Distance (km) Brightness Sun altitude
Rises 16:23:16 0° 330° (NNW) 3,409 5.5 -8.7°
Reaches altitude 10° 16:25:43 10° 329° (NNW) 2,471 4.8 -9.0°
Maximum altitude 16:31:23 82° 244° (WSW) 857 2.3 -9.9°
Drops below altitude 10° 16:37:02 10° 157° (SSE) 2,457 4.6 -10.8°
Sets 16:39:28 0° 156° (SSE) 3,388 5.3 -11.2°
